TimeEDT,TemperatureF,Dew PointF,Humidity,Sea Level PressureIn,VisibilityMPH,Wind Direction,Wind SpeedMPH,Gust SpeedMPH,PrecipitationIn,Events,Conditions,WindDirDegrees,DateUTC
12:35 AM,-9999,-9999,N/A,30.21,-9999.0,SE,9.2,-,N/A,,Overcast,130,2013-05-18 04:35:00
12:55 AM,-9999,-9999,N/A,30.21,-9999.0,SSE,8.1,-,N/A,,Unknown,150,2013-05-18 04:55:00
1:15 AM,-9999,-9999,N/A,30.21,-9999.0,SE,8.1,-,N/A,,Unknown,130,2013-05-18 05:15:00
1:35 AM,-9999,-9999,N/A,30.21,-9999.0,SE,6.9,-,N/A,,Unknown,140,2013-05-18 05:35:00
1:55 AM,-9999,-9999,N/A,30.20,-9999.0,SE,6.9,-,N/A,,Overcast,140,2013-05-18 05:55:00
2:15 AM,-9999,-9999,N/A,30.20,-9999.0,SE,6.9,-,N/A,,Overcast,140,2013-05-18 06:15:00
2:35 AM,-9999,-9999,N/A,30.20,-9999.0,SE,6.9,-,N/A,,Overcast,140,2013-05-18 06:35:00
2:55 AM,-9999,-9999,N/A,30.20,-9999.0,SSE,8.1,-,N/A,,Overcast,150,2013-05-18 06:55:00
3:15 AM,60.8,50.0,68,30.21,-9999.0,SSE,6.9,-,N/A,,Mostly Cloudy,160,2013-05-18 07:15:00
3:35 AM,60.8,50.0,68,30.21,-9999.0,SSE,8.1,-,N/A,,Overcast,150,2013-05-18 07:35:00
3:55 AM,60.8,50.0,68,30.22,-9999.0,SSE,5.8,-,N/A,,Overcast,160,2013-05-18 07:55:00
4:15 AM,59.0,51.8,77,30.23,-9999.0,South,4.6,-,N/A,,Overcast,170,2013-05-18 08:15:00
4:35 AM,-9999,-9999,N/A,30.22,-9999.0,SSE,4.6,-,N/A,,Mostly Cloudy,160,2013-05-18 08:35:00
4:55 AM,-9999,-9999,N/A,30.23,-9999.0,SE,3.5,-,N/A,,Mostly Cloudy,130,2013-05-18 08:55:00
5:15 AM,57.2,51.8,82,30.24,-9999.0,SSE,4.6,-,N/A,,Mostly Cloudy,160,2013-05-18 09:15:00
5:35 AM,57.2,51.8,82,30.25,-9999.0,SSE,3.5,-,N/A,,Mostly Cloudy,160,2013-05-18 09:35:00
5:55 AM,-9999,-9999,N/A,30.25,-9999.0,SE,3.5,-,N/A,,Unknown,140,2013-05-18 09:55:00
6:15 AM,57.2,51.8,82,30.26,-9999.0,SE,3.5,-,N/A,,Mostly Cloudy,140,2013-05-18 10:15:00
6:35 AM,59.0,51.8,77,30.26,-9999.0,SE,3.5,-,N/A,,Overcast,140,2013-05-18 10:35:00
6:55 AM,59.0,51.8,77,30.26,-9999.0,SE,4.6,-,N/A,,Overcast,130,2013-05-18 10:55:00
7:15 AM,-9999,-9999,N/A,30.26,-9999.0,ESE,5.8,-,N/A,,Overcast,120,2013-05-18 11:15:00
7:35 AM,60.8,51.8,72,30.27,-9999.0,SE,6.9,-,N/A,,Mostly Cloudy,140,2013-05-18 11:35:00
7:55 AM,-9999,-9999,N/A,30.27,-9999.0,SE,9.2,-,N/A,,Mostly Cloudy,140,2013-05-18 11:55:00
8:15 AM,62.6,53.6,72,30.27,-9999.0,SE,6.9,-,N/A,,Overcast,130,2013-05-18 12:15:00
8:35 AM,-9999,-9999,N/A,30.27,-9999.0,SE,9.2,-,N/A,,Unknown,140,2013-05-18 12:35:00
8:55 AM,-9999,-9999,N/A,30.28,-9999.0,SE,10.4,-,N/A,,Unknown,130,2013-05-18 12:55:00
9:15 AM,-9999,-9999,N/A,30.29,-9999.0,SE,10.4,-,N/A,,Unknown,130,2013-05-18 13:15:00
9:35 AM,-9999,-9999,N/A,30.29,-9999.0,SE,15.0,-,N/A,,Unknown,140,2013-05-18 13:35:00
9:55 AM,-9999,-9999,N/A,30.28,-9999.0,SE,11.5,-,N/A,,Unknown,140,2013-05-18 13:55:00
10:15 AM,-9999,-9999,N/A,30.29,-9999.0,SE,13.8,18.4,N/A,,Unknown,130,2013-05-18 14:15:00
10:35 AM,-9999,-9999,N/A,30.29,-9999.0,ESE,12.7,-,N/A,,Unknown,120,2013-05-18 14:35:00
10:55 AM,-9999,-9999,N/A,30.29,-9999.0,ESE,11.5,-,N/A,,Unknown,120,2013-05-18 14:55:00
11:15 AM,-9999,-9999,N/A,30.29,-9999.0,ESE,10.4,-,N/A,,Mostly Cloudy,120,2013-05-18 15:15:00
11:35 AM,-9999,-9999,N/A,30.29,-9999.0,ESE,9.2,-,N/A,,Unknown,110,2013-05-18 15:35:00
11:55 AM,-9999,-9999,N/A,30.29,-9999.0,SE,10.4,-,N/A,,Unknown,130,2013-05-18 15:55:00
12:15 PM,-9999,-9999,N/A,30.28,-9999.0,SE,12.7,-,N/A,,Unknown,130,2013-05-18 16:15:00
12:35 PM,-9999,-9999,N/A,30.28,-9999.0,ESE,15.0,18.4,N/A,,Unknown,120,2013-05-18 16:35:00
12:55 PM,-9999,-9999,N/A,30.29,-9999.0,ESE,11.5,-,N/A,,Overcast,120,2013-05-18 16:55:00
1:15 PM,-9999,-9999,N/A,30.28,-9999.0,East,8.1,-,N/A,,Overcast,90,2013-05-18 17:15:00
1:35 PM,-9999,-9999,N/A,30.27,-9999.0,ESE,11.5,-,N/A,,Overcast,120,2013-05-18 17:35:00
1:55 PM,-9999,-9999,N/A,30.26,-9999.0,SE,15.0,-,N/A,,Mostly Cloudy,130,2013-05-18 17:55:00
2:15 PM,-9999,-9999,N/A,30.26,-9999.0,ESE,11.5,-,N/A,,Overcast,110,2013-05-18 18:15:00
2:35 PM,-9999,-9999,N/A,30.25,-9999.0,ESE,13.8,19.6,N/A,,Overcast,120,2013-05-18 18:35:00
3:15 PM,-9999,-9999,N/A,30.25,-9999.0,ESE,12.7,-,N/A,,Overcast,120,2013-05-18 19:15:00
3:35 PM,-9999,-9999,N/A,30.26,-9999.0,ESE,9.2,-,N/A,,Overcast,120,2013-05-18 19:35:00
3:55 PM,-9999,-9999,N/A,30.25,-9999.0,ESE,9.2,-,N/A,,Overcast,120,2013-05-18 19:55:00
4:15 PM,-9999,-9999,N/A,30.26,-9999.0,SE,10.4,-,N/A,,Overcast,130,2013-05-18 20:15:00
4:35 PM,-9999,-9999,N/A,30.25,-9999.0,East,10.4,-,N/A,,Overcast,100,2013-05-18 20:35:00
4:55 PM,-9999,-9999,N/A,30.26,-9999.0,ESE,9.2,-,N/A,,Unknown,110,2013-05-18 20:55:00
5:15 PM,-9999,-9999,N/A,30.26,-9999.0,ESE,8.1,-,N/A,,Unknown,110,2013-05-18 21:15:00
5:35 PM,-9999,-9999,N/A,30.26,-9999.0,ESE,8.1,-,N/A,,Overcast,110,2013-05-18 21:35:00
6:15 PM,-9999,-9999,N/A,30.27,-9999.0,East,6.9,-,N/A,,Overcast,100,2013-05-18 22:15:00
6:35 PM,-9999,-9999,N/A,30.27,-9999.0,ESE,6.9,-,N/A,,Overcast,110,2013-05-18 22:35:00
6:55 PM,-9999,-9999,N/A,30.26,-9999.0,ESE,6.9,-,N/A,,Overcast,110,2013-05-18 22:55:00
7:15 PM,60.8,53.6,77,30.27,-9999.0,ESE,6.9,-,N/A,,Overcast,110,2013-05-18 23:15:00
7:35 PM,-9999,-9999,N/A,30.27,-9999.0,ESE,9.2,-,N/A,,Overcast,110,2013-05-18 23:35:00
7:55 PM,-9999,-9999,N/A,30.27,-9999.0,East,6.9,-,N/A,,Overcast,90,2013-05-18 23:55:00
8:15 PM,59.0,53.6,82,30.27,-9999.0,East,6.9,-,N/A,,Overcast,100,2013-05-19 00:15:00
8:35 PM,59.0,55.4,88,30.27,-9999.0,East,8.1,-,N/A,,Overcast,100,2013-05-19 00:35:00
8:55 PM,59.0,55.4,88,-9999,-9999.0,ESE,8.1,-,N/A,,Unknown,110,2013-05-19 00:55:00
9:15 PM,59.0,55.4,88,-9999,-9999.0,ESE,10.4,-,0.01,,Unknown,120,2013-05-19 01:15:00
9:35 PM,-9999,-9999,N/A,30.22,-9999.0,ESE,11.5,17.3,0.01,,Unknown,120,2013-05-19 01:35:00
9:55 PM,-9999,-9999,N/A,-9999,-9999.0,ESE,10.4,-,0.03,,Unknown,120,2013-05-19 01:55:00
10:15 PM,-9999,-9999,N/A,30.23,-9999.0,ESE,11.5,-,0.01,,Unknown,120,2013-05-19 02:15:00
10:35 PM,-9999,-9999,N/A,30.22,-9999.0,ESE,12.7,18.4,0.14,,Overcast,120,2013-05-19 02:35:00
10:55 PM,-9999,-9999,N/A,30.22,-9999.0,ESE,12.7,18.4,0.20,,Unknown,120,2013-05-19 02:55:00
11:15 PM,-9999,-9999,N/A,-9999,-9999.0,ESE,10.4,18.4,0.04,,Overcast,110,2013-05-19 03:15:00
11:35 PM,60.8,55.4,82,30.22,-9999.0,ESE,10.4,18.4,0.06,,Overcast,110,2013-05-19 03:35:00
11:55 PM,-9999,-9999,N/A,30.22,-9999.0,ESE,11.5,-,0.09,,Overcast,110,2013-05-19 03:55:00